Location: Poughquag
(41.6090°N, 73.6820°W)
Time: 19:07:32
(UTC-05:00)

X-37B - Visible Passes

Search period start: 15 January 2021 00:00
Search period end: 25 January 2021 00:00
Orbit: 389 x 390 km, 44.9° (Epoch: 18 May)

Date Brightness Start Highest point End Pass type
(mag) Time Alt. Az. Time Alt. Az. Time Alt. Az.
16 Jan ? 18:22:07 10° S 18:23:51 16° SSE 18:23:51 16° SSE visible
17 Jan ? 18:57:43 10° SW 18:59:24 27° SW 18:59:24 27° SW visible
18 Jan ? 17:58:30 10° SSW 18:01:15 27° SSE 18:02:38 20° ESE visible
18 Jan ? 19:34:29 10° W 19:34:51 13° W 19:34:51 13° W visible
19 Jan ? 18:34:48 10° WSW 18:38:00 79° SSE 18:38:02 79° SE visible
20 Jan ? 17:35:18 10° SW 17:38:22 46° SSE 17:41:10 12° E visible
20 Jan ? 19:11:49 10° W 19:13:22 25° WNW 19:13:22 25° WNW visible
21 Jan ? 18:12:01 10° WSW 18:15:12 70° NNW 18:16:28 33° ENE visible
22 Jan ? 18:49:08 10° W 18:51:44 40° NNW 18:51:44 40° NNW visible
23 Jan ? 17:49:18 10° W 17:52:26 53° N 17:54:47 16° ENE visible
23 Jan ? 19:26:11 10° WNW 19:26:59 16° WNW 19:26:59 16° WNW visible
24 Jan ? 18:26:25 10° WNW 18:29:29 43° N 18:30:02 38° NNE visible
